Погода в Афьонкарахисаре

Турция     38°45′15″N   30°33′52″E
темп.,
°C
ветер,
м/с
пор.,
м/с
влажн.,
%
обл.,
%
осадки,
мм/ч
давл.,
гПа
погр.,
м
26 сентября, вс
вс2600:00+13ссз11580 0.0 102211
03:00+11сз11630 0.0 102210
06:00+10ю00690 0.0 102210
09:00+13всв12570 0.0 1022247
12:00+18в33400 0.0 1021909
15:00+21в32325 0.0 10191207
18:00+20вюв23357 0.0 1017307
21:00+16в224715 0.0 101812
27 сентября, пн
пн2700:00+14вюв11517 0.0 101811
03:00+13с015552 0.0 101710
06:00+12зсз115868 0.0 101710
09:00+15ссз114735 0.0 1016190
12:00+19св2332100 0.0 1015935
15:00+23всв3324100 0.0 10121684
18:00+21св453019 0.0 1012234
21:00+16ссз22440 0.0 101415
28 сентября, вт
вт2800:00+14зсз22520 0.0 101522
03:00+12зсз22600 0.0 101517
06:00+11зсз22640 0.0 101513
09:00+14сз22500 0.0 1015219
12:00+19ссв22350 0.0 1014844
15:00+22ссв22270 0.0 10121512
18:00+21с35270 0.0 1012235
21:00+15сз22510 0.0 101638
29 сентября, ср
ср2900:00+13зсз22645 0.0 101640
03:00+11зсз22785 0.0 101629
06:00+10зсз22865 0.0 101735
09:00+12ссз336110 0.0 1017338
12:00+17с32415 0.0 1016931
15:00+20всв32345 0.0 10141693
18:00+18св554524 0.0 10141051
21:00+14с36640 0.0 1017245
30 сентября, чт
чт3000:00+11ссз22801 0.0 101852
03:00+10с22850 0.0 101728
06:00+9св118614 0.0 101713
09:00+12в367138 0.0 1018567
12:00+17в664954 0.0 10161058
15:00+19в5545100 0.0 10151178
18:00+17в5745100 0.0 1015767
21:00+15всв4846100 0.0 1016220